This is the latest recevied weather packets stored in our database for station/object SQ5JP-4. If no packets are shown the sender has not sent any weather packets the latest 10 day(s).
| Time | Temp. | Humidity | Pressure | Rain* | Wind** | Luminosity | Snow |
|---|---|---|---|---|---|---|---|
| 1776917667 | 5.56° C | 100% | 995 hPa | - | - | - | - |
| 1776916767 | 5.56° C | 100% | 994.9 hPa | - | - | - | - |
| 1776915867 | 5° C | 100% | 994.8 hPa | - | - | - | - |
| 1776914967 | 5° C | 100% | 994.7 hPa | - | - | - | - |
| 1776914067 | 5.56° C | 100% | 994.8 hPa | - | - | - | - |
| 1776913167 | 5.56° C | 100% | 994.7 hPa | - | - | - | - |
| 1776912267 | 5.56° C | 100% | 994.8 hPa | - | - | - | - |
| 1776911366 | 5.56° C | 100% | 994.9 hPa | - | - | - | - |
| 1776909568 | 5.56° C | 92% | 995 hPa | - | - | - | - |
| 1776908668 | 6.11° C | 86% | 995.2 hPa | - | - | - | - |
| 1776907768 | 6.67° C | 82% | 995.1 hPa | - | - | - | - |
| 1776906867 | 7.22° C | 78% | 995.4 hPa | - | - | - | - |
| 1776905967 | 7.22° C | 77% | 995.4 hPa | - | - | - | - |
| 1776905067 | 7.78° C | 72% | 995.5 hPa | - | - | - | - |
| 1776904167 | 8.33° C | 70% | 995.5 hPa | - | - | - | - |
| 1776903267 | 8.33° C | 68% | 995.5 hPa | - | - | - | - |
| 1776902367 | 8.89° C | 67% | 995.4 hPa | - | - | - | - |
| 1776901467 | 8.89° C | 68% | 995.2 hPa | - | - | - | - |
| 1776900567 | 8.89° C | 68% | 995.2 hPa | - | - | - | - |
| 1776899667 | 8.89° C | 70% | 995.2 hPa | - | - | - | - |
| 1776898767 | 8.89° C | 69% | 995.4 hPa | - | - | - | - |
| 1776897867 | 8.89° C | 69% | 995.5 hPa | - | - | - | - |
| 1776896066 | 8.89° C | 67% | 995.7 hPa | - | - | - | - |
| 1776895166 | 9.44° C | 65% | 995.8 hPa | - | - | - | - |
| 1776894266 | 9.44° C | 64% | 995.9 hPa | - | - | - | - |
* Rain since midnight (hover to see other rain measurements)
** Current wind speed in m/s (hover to see current wind gust speed)